| time (UTC) | temp F | wind direction | speed MPH | gust MPH | rain 1hr in | rain 24hr in | rain mn in | humidity % | barometer mb |
| 20260505034601 | 0 | 225 | 16.0 | 22.0 | 0.00 | 0.00 | 0.00 | ||
| 20260505034021 | 0 | 225 | 15.0 | 22.0 | 0.00 | 0.00 | 0.00 | ||
| 20260505024521 | 0 | 225 | 13.0 | 20.0 | 0.00 | 0.00 | 0.00 | ||
| 20260505024023 | 0 | 225 | 12.0 | 20.0 | 0.00 | 0.00 | 0.00 | ||
| 20260505023522 | 0 | 225 | 13.0 | 20.0 | 0.00 | 0.00 | 0.00 | ||
| 20260505023021 | 0 | 225 | 13.0 | 20.0 | 0.00 | 0.00 | 0.00 | ||
| 20260505022521 | 0 | 225 | 12.0 | 20.0 | 0.00 | 0.00 | 0.00 | ||
| 20260505022021 | 0 | 225 | 12.0 | 22.0 | 0.00 | 0.00 | 0.00 | ||
| 20260505021521 | 0 | 225 | 14.0 | 22.0 | 0.00 | 0.00 | 0.00 | ||
| 20260505021102 | 0 | 225 | 16.0 | 23.0 | 0.00 | 0.00 | 0.00 | ||
| 20260505020529 | 0 | 225 | 18.0 | 25.0 | 0.00 | 0.00 | 0.00 | ||
| 20260505020049 | 0 | 248 | 18.0 | 24.0 | 0.00 | 0.00 | 0.00 | ||
| 20260505015522 | 0 | 248 | 17.0 | 23.0 | 0.00 | 0.00 | 0.00 | ||
| 20260505015021 | 0 | 248 | 17.0 | 22.0 | 0.00 | 0.00 | 0.00 | ||
| 20260505014523 | 0 | 225 | 16.0 | 23.0 | 0.00 | 0.00 | 0.00 | ||
| 20260505014020 | 0 | 225 | 11.0 | 18.0 | 0.00 | 0.00 | 0.00 | ||
| 20260505013526 | 0 | 225 | 11.0 | 17.0 | 0.00 | 0.00 | 0.00 | ||
| 20260505013021 | 0 | 225 | 13.0 | 18.0 | 0.00 | 0.00 | 0.00 | ||
| 20260505012520 | 0 | 225 | 11.0 | 17.0 | 0.00 | 0.00 | 0.00 | ||
| 20260505012042 | 0 | 225 | 11.0 | 18.0 | 0.00 | 0.00 | 0.00 | ||
| 20260505011520 | 0 | 225 | 14.0 | 20.0 | 0.00 | 0.00 | 0.00 | ||
| 20260505011020 | 0 | 225 | 13.0 | 21.0 | 0.00 | 0.00 | 0.00 | ||
| 20260505005520 | 0 | 225 | 9.0 | 17.0 | 0.00 | 0.00 | 0.00 | ||
| 20260505005021 | 0 | 225 | 12.0 | 19.0 | 0.00 | 0.00 | 0.00 | ||
| 20260505004022 | 0 | 225 | 16.0 | 22.0 | 0.00 | 0.00 | 0.00 | ||
| 20260505003520 | 0 | 248 | 17.0 | 24.0 | 0.00 | 0.00 | 0.00 | ||
| 20260505003021 | 0 | 225 | 17.0 | 23.0 | 0.00 | 0.00 | 0.00 | ||
| 20260505002520 | 0 | 225 | 15.0 | 23.0 | 0.00 | 0.00 | 0.00 | ||
| 20260505002021 | 0 | 225 | 13.0 | 25.0 | 0.00 | 0.00 | 0.00 | ||
| 20260505001520 | 0 | 225 | 15.0 | 24.0 | 0.00 | 0.00 | 0.00 | ||
| 20260505001058 | 0 | 225 | 17.0 | 24.0 | 0.00 | 0.00 | 0.00 | ||
| 20260505000551 | 0 | 225 | 19.0 | 27.0 | 0.00 | 0.00 | 0.00 | ||
| 20260505000023 | 0 | 225 | 17.0 | 28.0 | 0.00 | 0.00 | 0.00 | ||
| 20260504235520 | 0 | 225 | 18.0 | 26.0 | 0.00 | 0.00 | 0.00 | ||
| 20260504235021 | 0 | 225 | 20.0 | 30.0 | 0.00 | 0.00 | 0.00 | ||
| 20260504234520 | 0 | 225 | 20.0 | 28.0 | 0.00 | 0.00 | 0.00 | ||
| 20260504234040 | 0 | 225 | 20.0 | 29.0 | 0.00 | 0.00 | 0.00 | ||
| 20260504233520 | 0 | 225 | 21.0 | 30.0 | 0.00 | 0.00 | 0.00 | ||
| 20260504233021 | 56 | 225 | 21.0 | 30.0 | 0.00 | 0.00 | 0.00 | 69 | |
| 20260504232521 | 57 | 225 | 21.0 | 29.0 | 0.00 | 0.00 | 0.00 | 69 | |
| 20260504232021 | 56 | 225 | 19.0 | 29.0 | 0.00 | 0.00 | 0.00 | 70 | |
| 20260504231524 | 56 | 225 | 18.0 | 25.0 | 0.00 | 0.00 | 0.00 | 71 | |
| 20260504231020 | 56 | 225 | 20.0 | 26.0 | 0.00 | 0.00 | 0.00 | 70 | |
| 20260504230521 | 56 | 225 | 18.0 | 24.0 | 0.00 | 0.00 | 0.00 | 69 | |
| 20260504230020 | 57 | 225 | 20.0 | 25.0 | 0.00 | 0.00 | 0.00 | 69 | |
| 20260504225520 | 57 | 203 | 22.0 | 27.0 | 0.00 | 0.00 | 0.00 | 68 | |
| 20260504225040 | 57 | 203 | 25.0 | 32.0 | 0.00 | 0.00 | 0.00 | 68 | |
| 20260504224520 | 57 | 225 | 20.0 | 28.0 | 0.00 | 0.00 | 0.00 | 69 | |
| 20260504224040 | 57 | 225 | 16.0 | 21.0 | 0.00 | 0.00 | 0.00 | 69 | |
| 20260504223520 | 57 | 225 | 18.0 | 30.0 | 0.00 | 0.00 | 0.00 | 68 | |
| 20260504223044 | 57 | 225 | 23.0 | 30.0 | 0.00 | 0.00 | 0.00 | 68 | |
| 20260504222520 | 56 | 225 | 18.0 | 25.0 | 0.00 | 0.00 | 0.00 | 69 | |
| 20260504222044 | 57 | 203 | 22.0 | 28.0 | 0.00 | 0.00 | 0.00 | 68 | |
| 20260504221520 | 56 | 203 | 25.0 | 29.0 | 0.00 | 0.00 | 0.00 | 68 | |
| 20260504221020 | 56 | 203 | 23.0 | 28.0 | 0.00 | 0.00 | 0.00 | 68 | |
| 20260504220600 | 56 | 203 | 22.0 | 29.0 | 0.00 | 0.00 | 0.00 | 68 | |
| 20260504220022 | 57 | 203 | 19.0 | 23.0 | 0.00 | 0.00 | 0.00 | 68 | |
| 20260504215540 | 57 | 203 | 20.0 | 25.0 | 0.00 | 0.00 | 0.00 | 67 | |
| 20260504215020 | 57 | 203 | 20.0 | 25.0 | 0.00 | 0.00 | 0.00 | 67 | |
| 20260504214546 | 57 | 203 | 19.0 | 24.0 | 0.00 | 0.00 | 0.00 | 67 | |
| 20260504214023 | 56 | 225 | 16.0 | 21.0 | 0.00 | 0.00 | 0.00 | 67 | |
| 20260504213521 | 56 | 225 | 16.0 | 21.0 | 0.00 | 0.00 | 0.00 | 69 | |
| 20260504213027 | 56 | 203 | 14.0 | 18.0 | 0.00 | 0.00 | 0.00 | 70 | |
| 20260504212521 | 56 | 203 | 12.0 | 15.0 | 0.00 | 0.00 | 0.00 | 70 | |
| 20260504212042 | 57 | 203 | 13.0 | 17.0 | 0.00 | 0.00 | 0.00 | 68 | |
| 20260504211523 | 58 | 225 | 11.0 | 20.0 | 0.00 | 0.00 | 0.00 | 65 | |
| 20260504211023 | 59 | 225 | 11.0 | 17.0 | 0.00 | 0.00 | 0.00 | 62 | |
| 20260504210522 | 59 | 225 | 12.0 | 20.0 | 0.00 | 0.00 | 0.00 | 62 | |
| 20260504210043 | 58 | 225 | 12.0 | 18.0 | 0.00 | 0.00 | 0.00 | 64 | |
| 20260504205523 | 58 | 225 | 13.0 | 20.0 | 0.00 | 0.00 | 0.00 | 65 | |
| 20260504205022 | 59 | 225 | 14.0 | 19.0 | 0.00 | 0.00 | 0.00 | 63 | |
| 20260504204522 | 59 | 225 | 12.0 | 18.0 | 0.00 | 0.00 | 0.00 | 63 | |
| 20260504204022 | 58 | 225 | 11.0 | 19.0 | 0.00 | 0.00 | 0.00 | 63 | |
| 20260504202522 | 59 | 225 | 14.0 | 21.0 | 0.00 | 0.00 | 0.00 | 62 | |
| 20260504202022 | 59 | 225 | 12.0 | 18.0 | 0.00 | 0.00 | 0.00 | 61 | |
| 20260504201522 | 59 | 225 | 10.0 | 19.0 | 0.00 | 0.00 | 0.00 | 62 | |
| 20260504201025 | 59 | 225 | 12.0 | 18.0 | 0.00 | 0.00 | 0.00 | 62 | |
| 20260504200600 | 59 | 225 | 11.0 | 19.0 | 0.00 | 0.00 | 0.00 | 61 | |
| 20260504200027 | 60 | 225 | 12.0 | 20.0 | 0.00 | 0.00 | 0.00 | 59 | |
| 20260504195542 | 60 | 225 | 13.0 | 20.0 | 0.00 | 0.00 | 0.00 | 59 | |
| 20260504195022 | 59 | 225 | 13.0 | 21.0 | 0.00 | 0.00 | 0.00 | 61 | |
| 20260504194521 | 59 | 225 | 13.0 | 20.0 | 0.00 | 0.00 | 0.00 | 60 | |
| 20260504194022 | 59 | 225 | 14.0 | 20.0 | 0.00 | 0.00 | 0.00 | 60 | |
| 20260504193606 | 59 | 225 | 16.0 | 22.0 | 0.00 | 0.00 | 0.00 | 60 | |
| 20260504193025 | 59 | 225 | 14.0 | 22.0 | 0.00 | 0.00 | 0.00 | 61 | |
| 20260504192522 | 60 | 225 | 10.0 | 19.0 | 0.00 | 0.00 | 0.00 | 60 | |
| 20260504192042 | 60 | 225 | 12.0 | 20.0 | 0.00 | 0.00 | 0.00 | 59 | |
| 20260504191522 | 60 | 225 | 16.0 | 23.0 | 0.00 | 0.00 | 0.00 | 57 | |
| 20260504191022 | 60 | 225 | 12.0 | 20.0 | 0.00 | 0.00 | 0.00 | 59 | |
| 20260504190026 | 60 | 225 | 12.0 | 21.0 | 0.00 | 0.00 | 0.00 | 59 | |
| 20260504185521 | 59 | 225 | 11.0 | 18.0 | 0.00 | 0.00 | 0.00 | 60 | |
| 20260504185022 | 60 | 225 | 12.0 | 20.0 | 0.00 | 0.00 | 0.00 | 59 | |
| 20260504184522 | 60 | 225 | 12.0 | 21.0 | 0.00 | 0.00 | 0.00 | 58 | |
| 20260504184022 | 60 | 225 | 13.0 | 19.0 | 0.00 | 0.00 | 0.00 | 57 | |
| 20260504182522 | 60 | 225 | 13.0 | 22.0 | 0.00 | 0.00 | 0.00 | 57 | |
| 20260504182026 | 60 | 225 | 12.0 | 21.0 | 0.00 | 0.00 | 0.00 | 57 | |
| 20260504181522 | 61 | 225 | 13.0 | 20.0 | 0.00 | 0.00 | 0.00 | 56 | |
| 20260504181023 | 61 | 225 | 15.0 | 22.0 | 0.00 | 0.00 | 0.00 | 55 | |
| 20260504180523 | 62 | 225 | 17.0 | 24.0 | 0.00 | 0.00 | 0.00 | 53 | |
| 20260504180024 | 62 | 225 | 18.0 | 27.0 | 0.00 | 0.00 | 0.00 | 50 | |
| 20260504175522 | 61 | 225 | 15.0 | 22.0 | 0.00 | 0.00 | 0.00 | 54 | |
| 20260504175022 | 62 | 225 | 18.0 | 26.0 | 0.00 | 0.00 | 0.00 | 52 | |
| 20260504174522 | 62 | 225 | 19.0 | 27.0 | 0.00 | 0.00 | 0.00 | 53 | |
| 20260504174022 | 61 | 248 | 18.0 | 27.0 | 0.00 | 0.00 | 0.00 | 52 | |
| 20260504173522 | 60 | 225 | 16.0 | 23.0 | 0.00 | 0.00 | 0.00 | 57 | |
| 20260504173043 | 61 | 225 | 16.0 | 25.0 | 0.00 | 0.00 | 0.00 | 56 | |
| 20260504172522 | 62 | 248 | 21.0 | 29.0 | 0.00 | 0.00 | 0.00 | 51 | |
| 20260504172024 | 61 | 248 | 20.0 | 27.0 | 0.00 | 0.00 | 0.00 | 53 | |
| 20260504171542 | 60 | 248 | 20.0 | 25.0 | 0.00 | 0.00 | 0.00 | 56 | |
| 20260504171021 | 59 | 248 | 20.0 | 26.0 | 0.00 | 0.00 | 0.00 | 58 | |
| 20260504170602 | 59 | 225 | 19.0 | 26.0 | 0.00 | 0.00 | 0.00 | 62 | |
| 20260504151022 | 55 | 225 | 13.0 | 19.0 | 0.00 | 0.00 | 0.00 | 70 | |
| 20260504150521 | 55 | 225 | 12.0 | 19.0 | 0.00 | 0.00 | 0.00 | 71 | |
| 20260504141022 | 54 | 225 | 13.0 | 20.0 | 0.00 | 0.00 | 0.00 | 70 | |
| 20260504140524 | 54 | 225 | 11.0 | 18.0 | 0.00 | 0.00 | 0.00 | 70 | |
| 20260504130521 | 52 | 248 | 14.0 | 19.0 | 0.00 | 0.00 | 0.00 | 70 | |
| 20260504110521 | 49 | 248 | 12.0 | 18.0 | 0.00 | 0.00 | 0.00 | 75 | |
| 20260504100535 | 49 | 248 | 12.0 | 17.0 | 0.00 | 0.00 | 0.00 | 70 | |
| 20260504090123 | 0 | 270 | 8.0 | 11.0 | 0.00 | 0.00 | 0.00 | ||
| 20260504081520 | 0 | 270 | 9.0 | 13.0 | 0.00 | 0.00 | 0.00 | ||
| 20260504081020 | 0 | 270 | 10.0 | 13.0 | 0.00 | 0.00 | 0.00 | ||
| 20260504080531 | 0 | 270 | 10.0 | 14.0 | 0.00 | 0.00 | 0.00 | ||
| 20260504050521 | 0 | 248 | 9.0 | 12.0 | 0.00 | 0.00 | 0.00 | ||
| 20260504045521 | 0 | 248 | 8.0 | 10.0 | 0.00 | 0.00 | 0.00 | ||
| 20260504045021 | 0 | 248 | 8.0 | 10.0 | 0.00 | 0.00 | 0.00 | ||
| 20260504044521 | 0 | 248 | 8.0 | 11.0 | 0.00 | 0.00 | 0.00 | ||
| 20260504044103 | 0 | 248 | 9.0 | 11.0 | 0.00 | 0.00 | 0.00 | ||
| 20260504043526 | 0 | 248 | 9.0 | 11.0 | 0.00 | 0.00 | 0.00 | ||
| 20260504043026 | 0 | 248 | 8.0 | 11.0 | 0.00 | 0.00 | 0.00 | ||
| 20260504042521 | 0 | 248 | 9.0 | 10.0 | 0.00 | 0.00 | 0.00 | ||
| 20260504042102 | 0 | 248 | 8.0 | 11.0 | 0.00 | 0.00 | 0.00 | ||
| 20260504041521 | 0 | 248 | 9.0 | 11.0 | 0.00 | 0.00 | 0.00 | ||
| 20260504041021 | 0 | 270 | 9.0 | 11.0 | 0.00 | 0.00 | 0.00 | ||
| 20260504040538 | 0 | 270 | 9.0 | 11.0 | 0.00 | 0.00 | 0.00 | ||
| 20260504040030 | 0 | 270 | 9.0 | 10.0 | 0.00 | 0.00 | 0.00 |